Regional Weather Roundup
Issued by NWS

Home | Current Version | Previous Version | Graphics & Text | Print | Product List | Glossary On
Versions: 1 2 3 4 5 6 7 8 9 10 11 12 13 14 15 16 17 18 19 20 21 22 23 24 25 26 27 28 29 30 31 32 33 34 35 36 37 38 39 40 41 42 43 44 45 46 47 48 49 50
000
ASUS43 KLSX 221159
RWRMO

WEATHER SUMMARY FOR MISSOURI
NATIONAL WEATHER SERVICE SPRINGFIELD MO
600 AM CST MON DEC 22 2014

NOTE: "FAIR" INDICATES FEW OR NO CLOUDS BELOW 12,000 FEET WITH NO
       SIGNIFICANT WEATHER AND/OR OBSTRUCTIONS TO VISIBILITY.
       CURRENT SKY AND/OR WEATHER CONDITIONS ARE NOT AVAILABLE FOR
       CHILLICOTHE AND FARMINGTON.

MOZ001>031-035>038-043-044-053-054-221300-
...NORTHERN AND WESTERN MISSOURI...

CITY           SKY/WX    TMP DP  RH WIND       PRES   REMARKS
KANSAS CTY INT DRIZZLE   41  40  96 SE15      29.61F FOG
6HR MIN TEMP:  41; 6HR MAX TEMP:  42; 6HR PCP:  0.03;

KANSAS C DTWN  CLOUDY    43  40  89 SE6       29.62F
6HR MIN TEMP:  43; 6HR MAX TEMP:  45; 6HR PCP: TRACE;

LEE`S SUMMIT   CLOUDY    41  40  96 S9        29.63F
6HR MIN TEMP:  41; 6HR MAX TEMP:  42; 6HR PCP:  0.01;

ST JOSEPH      LGT RAIN  42  39  89 SE13      29.61F
6HR MIN TEMP:  42; 6HR MAX TEMP:  44; 6HR PCP:  0.01;

CHILLICOTHE      N/A     41  36  82 SE7       29.67F
6HR MIN TEMP:  41; 6HR MAX TEMP:  42;

KIRKSVILLE     CLOUDY    40  36  86 SE12      29.71F
6HR MIN TEMP:  39; 6HR MAX TEMP:  40;


$$
MOZ066>068-077>081-088>096-101>105-221300-
...SOUTHWEST MISSOURI...

CITY           SKY/WX    TMP DP  RH WIND       PRES   REMARKS
SPRINGFIELD    CLOUDY    42  39  89 SE13      29.64F
6HR MIN TEMP:  42; 6HR MAX TEMP:  43;

JOPLIN         CLOUDY    45  43  93 SE9       29.63S FOG
6HR MIN TEMP:  43; 6HR MAX TEMP:  46;


$$
MOZ032>034-039>042-045>050-055>058-069>072-221300-
...CENTRAL MISSOURI...

CITY           SKY/WX    TMP DP  RH WIND       PRES   REMARKS
COLUMBIA       LGT RAIN  39  37  92 SE8       29.70F
6HR MIN TEMP:  39; 6HR MAX TEMP:  42; 6HR PCP:  0.03;

JEFFERSON CITY CLOUDY    41  38  89 E8        29.71F FOG
6HR MIN TEMP:  41; 6HR MAX TEMP:  43; 6HR PCP:  0.01;

ROLLA          LGT RAIN  40  38  93 SE7       29.69F
6HR MIN TEMP:  39; 6HR MAX TEMP:  42; 6HR PCP:  0.03;

SEDALIA        CLOUDY    41  37  86 SE10      29.67F
6HR MIN TEMP:  41; 6HR MAX TEMP:  44;

WARRENSBURG    CLOUDY    41  37  87 SE9       29.65S
OSAGE BEACH    CLOUDY    45  36  70 S7        29.68F

$$
MOZ051-052-059>065-221300-
...EAST CENTRAL MISSOURI...

CITY           SKY/WX    TMP DP  RH WIND       PRES   REMARKS
ST LOUIS INTL  LGT RAIN  40  35  83 E10       29.80F
6HR MIN TEMP:  40; 6HR MAX TEMP:  43; 6HR PCP:  0.05;

SPIRIT OF STL  LGT RAIN  39  35  86 E6        29.77F FOG
6HR MIN TEMP:  39; 6HR MAX TEMP:  42; 6HR PCP:  0.03;

ST CHARLES     LGT RAIN  38  36  92 E8        29.80F FOG
6HR MIN TEMP:  38; 6HR MAX TEMP:  40; 6HR PCP:  0.03;


$$
MOZ072>076-082>087-097>100-106>115-221300-
...SOUTH CENTRAL AND SOUTHEAST MISSOURI...

CITY           SKY/WX    TMP DP  RH WIND       PRES   REMARKS
CAPE GIRARDEAU CLOUDY    44  41  89 S6        29.85R
6HR MIN TEMP:  41; 6HR MAX TEMP:  45;

FARMINGTON     CLOUDY    43  39  87 E10       29.78F
6HR MIN TEMP:  41; 6HR MAX TEMP:  43;

POPLAR BLUFF   CLOUDY    44  40  85 S9        29.81F
6HR MIN TEMP:  41; 6HR MAX TEMP:  44;

WEST PLAINS    CLOUDY    43  40  89 SE9       29.71F
6HR MIN TEMP:  40; 6HR MAX TEMP:  43; 6HR PCP:  0.01;


$$


USA.gov is the U.S. government's official web portal to all federal, state and local government web resources and services.